Location: Dampvalley
(47.9094°N, 6.1967°E)
Time: 15:27:46
(UTC+00:00)

SL-27 R/B - Pass Details

Date: 05 March 2021
Orbit: 418 x 468 km, 74.7° (Epoch: 15 April)

Event Time Altitude Azimuth Distance (km) Brightness Sun altitude
Exits shadow 03:49:07 40° 19° (NNE) 706 3.6 -23.9°
Drops below altitude 10° 03:51:31 10° 21° (NNE) 1,633 5.7 -23.5°
Sets 03:53:39 0° 22° (NNE) 2,518 6.8 -23.2°
